Location: *
(35.8942°N, 23.3025°E)
Time: 23:40:49
(UTC+00:00)

X-37B - Pass Details

Date: 21 September 2021
Orbit: 342 x 346 km, 45.0° (Epoch: 22 October)

Event Time Altitude Azimuth Distance (km) Brightness Sun altitude
Exits shadow 01:25:36 - 99° (E) 2,161 5.0 -33.5°
Enters shadow 02:21:19 -68° 240° (WSW) 12,207 8.2 -23.2°
Maximum altitude 02:57:56 42° 144° (SE) 500 1.3 -16.1°
